Weather History for KPLN - December, 2012

Change the Weather History Date:

Monday, December 3, 2012

  Actual Average Record
Temperature  
Mean Temperature 48 °F -  
Max Temperature 63 °F 33 °F 64 °F (1951)
Min Temperature 32 °F 19 °F -9 °F (2002)
Degree Days  
Heating Degree Days 18    
Moisture  
Dew Point 43 °F    
Average Humidity 88    
Maximum Humidity 100    
Minimum Humidity 77    
Precipitation  
Precipitation 0.01 in - - ()
Sea Level Pressure  
Sea Level Pressure 29.92 in    
Wind  
Wind Speed 4 mph (SSE)    
Max Wind Speed 17 mph    
Max Gust Speed 29 mph    
Visibility 6 miles    
Events Fog    
Averages and records for this station are not official NWS values.
T = Trace of Precipitation, MM = Missing Value Source: NWS Daily Summary

Daily Weather History Graph

Daily Weather History Graph

Search for Another Location

Airport or City:

Trip Planner

Search our weather history database for the weather conditions in past years. The results will help you decide how hot, cold, wet, or windy it might be!

Date:

Astronomy

Dec. 03, 2012 Rise Set
Actual Time 8:01 AM EST 4:56 PM EST
Civil Twilight 7:28 AM EST 5:30 PM EST
Nautical Twilight 6:51 AM EST 6:07 PM EST
Astronomical Twilight 6:15 AM EST 6:43 PM EST
Moon 9:50 PM EST (12/3) 11:17 AM EST (12/3)
Length of Visible Light 10h 01m
Length of Day
8h 54m
Waning Gibbous, 78% of the Moon is Illuminated
Dec 3
Waning Gibbous
Dec 6
Last Quarter
Dec 13
New
Dec 20
First Quarter
Dec 28
Full

Hourly Weather History & Observations

Time (EST) Temp. Windchill Dew Point Humidity Pressure Visibility Wind Dir Wind Speed Gust Speed Precip Events Conditions
12:54 AM 34.0 °F - 33.1 °F 96% 30.11 in 5.0 mi Calm Calm - N/A   Scattered Clouds
1:01 AM 35.6 °F - 33.8 °F 93% 30.08 in 4.0 mi Calm Calm - N/A   Mostly Cloudy
1:15 AM 33.8 °F - 32.0 °F 93% 30.08 in 1.8 mi Calm Calm - N/A   Mostly Cloudy
1:26 AM 33.8 °F - 32.0 °F 93% 30.08 in 0.5 mi Calm Calm - N/A Fog Fog
1:36 AM 33.8 °F - 32.0 °F 93% 30.09 in 2.0 mi Calm Calm - N/A   Mostly Cloudy
1:45 AM 33.8 °F - 32.0 °F 93% 30.09 in 0.8 mi Calm Calm - N/A   Mostly Cloudy
1:54 AM 32.0 °F - 32.0 °F 100% 30.12 in 0.5 mi Calm Calm - N/A Fog Fog
2:12 AM 33.8 °F - 32.0 °F 93% 30.10 in 1.5 mi Calm Calm - N/A   Overcast
2:32 AM 33.8 °F - 32.0 °F 93% 30.10 in 2.5 mi Calm Calm - N/A   Overcast
2:43 AM 33.8 °F - 32.0 °F 93% 30.10 in 5.0 mi Calm Calm - N/A   Overcast
2:51 AM 33.8 °F 30.8 °F 33.8 °F 100% 30.10 in 5.0 mi SSE 3.5 mph - N/A   Overcast
2:54 AM 34.0 °F 31.0 °F 33.1 °F 96% 30.12 in 5.0 mi SSE 3.5 mph - N/A   Overcast
3:54 AM 37.9 °F 35.5 °F 35.1 °F 89% 30.10 in 10.0 mi SSE 3.5 mph - N/A   Overcast
4:12 AM 37.4 °F 33.8 °F 35.6 °F 93% 30.08 in 9.0 mi SSE 4.6 mph - N/A   Overcast
4:54 AM 37.9 °F 34.4 °F 35.1 °F 89% 30.08 in 9.0 mi SSE 4.6 mph - N/A   Overcast
5:54 AM 37.9 °F 35.5 °F 35.1 °F 89% 30.08 in 9.0 mi SSE 3.5 mph - N/A   Overcast
7:54 AM 37.9 °F 33.5 °F 36.0 °F 93% 30.06 in 6.0 mi SSE 5.8 mph - N/A   Overcast
8:54 AM 39.0 °F 36.8 °F 37.0 °F 93% 30.06 in 5.0 mi SSE 3.5 mph - N/A   Overcast
9:54 AM 39.9 °F 35.8 °F 37.9 °F 93% 30.04 in 4.0 mi SE 5.8 mph - N/A   Overcast
10:54 AM 45.0 °F 40.6 °F 42.1 °F 90% 30.01 in 5.0 mi SE 8.1 mph - N/A   Overcast
11:54 AM 46.0 °F 41.0 °F 43.0 °F 89% 29.97 in 5.0 mi SE 10.4 mph - N/A   Overcast
12:27 PM 48.2 °F - 44.6 °F 87% 29.93 in 6.0 mi SE 12.7 mph - N/A   Overcast
12:44 PM 48.2 °F - 44.6 °F 87% 29.91 in 6.0 mi SE 10.4 mph - N/A   Overcast
12:54 PM 50.0 °F - 45.0 °F 83% 29.93 in 6.0 mi SE 8.1 mph - N/A   Haze
2:54 PM 53.1 °F - 48.0 °F 83% 29.85 in 7.0 mi SE 10.4 mph - N/A   Overcast
3:37 PM 53.6 °F - 48.2 °F 82% 29.81 in 8.0 mi SSE 10.4 mph - N/A   Overcast
3:54 PM 53.1 °F - 48.0 °F 83% 29.82 in 7.0 mi SE 10.4 mph - N/A   Overcast
4:28 PM 53.6 °F - 48.2 °F 82% 29.79 in 8.0 mi SSE 8.1 mph - N/A   Overcast
4:54 PM 53.1 °F - 48.9 °F 86% 29.80 in 9.0 mi SSE 11.5 mph - N/A   Overcast
5:54 PM 53.1 °F - 48.9 °F 86% 29.78 in 9.0 mi SE 10.4 mph - N/A   Overcast
6:54 PM 55.9 °F - 52.0 °F 87% 29.74 in 10.0 mi SSE 13.8 mph - N/A   Overcast
7:01 PM 57.2 °F - 53.6 °F 88% 29.73 in 10.0 mi South 10.4 mph - N/A   Overcast
7:54 PM 59.0 °F - 54.0 °F 83% 29.72 in 10.0 mi South 10.4 mph - N/A   Overcast
8:54 PM 61.0 °F - 55.0 °F 81% 29.68 in 10.0 mi SSE 8.1 mph 16.1 mph N/A   Overcast
9:36 PM 62.6 °F - 55.4 °F 77% 29.65 in 10.0 mi South 16.1 mph 24.2 mph N/A   Overcast
9:54 PM 62.1 °F - 55.9 °F 80% 29.65 in 10.0 mi South 8.1 mph 18.4 mph N/A   Overcast
10:45 PM 62.6 °F - 55.4 °F 77% 29.63 in 10.0 mi South 11.5 mph - N/A   Overcast
10:54 PM 63.0 °F - 55.9 °F 78% 29.64 in 10.0 mi South 15.0 mph 23.0 mph N/A   Overcast
11:26 PM 62.6 °F - 57.2 °F 82% 29.63 in 10.0 mi SSW 15.0 mph 25.3 mph N/A   Overcast
11:54 PM 62.1 °F - 57.0 °F 84% 29.64 in 10.0 mi SW 17.3 mph 28.8 mph 0.01 in   Overcast